Temperature
17 17 17 17 17 17 17 17 17 17 17 17 16 16 16 16 16 16 16 16 16 16 16 16 16 16 16 16 16 16 16 16 16 17 17 17 17 17 17 16 16 16 16
17 17 17 17 17 17 17 17 17 17 17 17 16 16 16 16 16 16 16 16 16 15 15 15 15 16 16 16 16 16 16 16 16 16 16 16 16 16 16 16 16 15 15
17 17 17 17 17 17 17 17 17 17 17 16 16 16 16 16 16 16 16 16 16 15 15 15 15 15 15 15 15 15 15 15 15 15 15 15 15 15 15 15 15 15 15
17 17 17 17 16 16 16 17 17 17 17 16 16 16 16 16 16 16 15 15 15 15 15 15 15 15 15 15 15 15 15 15 15 15 15 15 15 15 15 15 15 15 15
17 17 17 17 16 16 16 16 16 16 16 16 16 16 16 15 15 15 15 15 15 15 15 15 14 14 14 14 14 14 14 14 14 14 14 14 14 14 14 14 14 14 14
17 17 17 16 16 16 16 16 16 16 16 16 16 15 15 15 15 15 15 15 15 14 14 14 14 14 14 14 14 13 13 13 13 13 13 13 13 13 13 13 13 13 13
17 17 16 16 16 16 16 16 16 16 16 15 15 15 15 15 15 15 15 15 14 14 14 13 13 13 13 13 13 13 12 12 12 12 12 12 12 12 12 12 12 12 12
17 17 16 16 16 16 16 16 16 15 15 15 15 15 14 14 14 14 14 14 14 13 13 13 13 13 12 12 12 12 12 11 11 11 11 11 11 11 11 11 11 11 11
17 16 16 16 16 15 15 15 15 15 14 14 14 14 14 14 14 14 13 13 13 12 12 12 12 12 11 11 11 11 11 11 10 10 10 10 10 10 10 10 10 9 9
16 16 16 16 15 15 15 14 14 14 13 13 13 13 13 13 13 13 12 12 12 11 11 11 11 10 10 10 10 10 10 10 10 10 9 9 9 9 9 9 9 8 8
16 15 15 15 14 14 14 13 13 13 13 13 12 12 12 12 12 11 11 11 11 10 10 10 9 9 9 9 9 9 8 8 8 8 8 8 8 8 8 8 8 7 7
15 14 14 14 13 13 13 13 13 13 13 12 12 11 11 10 10 10 10 10 10 9 9 9 8 8 8 8 8 8 7 7 7 7 7 7 7 7 7 7 7 7 7
13 13 13 13 13 12 12 12 12 12 12 11 11 10 9 9 9 9 9 8 8 8 8 8 8 7 7 7 7 7 7 6 6 6 6 6 6 6 6 6 6 6 6
12 12 12 12 11 11 11 11 11 11 11 10 10 9 8 8 8 8 8 8 8 7 7 7 7 7 7 6 6 6 6 6 5 5 5 5 5 5 5 5 5 5 5
12 11 11 11 11 11 11 10 10 10 10 10 9 9 8 8 8 7 7 7 7 7 7 7 6 6 6 6 6 5 5 5 5 4 4 4 4 4 4 4 3 3 3
11 11 10 10 10 10 10 9 9 9 9 8 8 8 7 7 7 7 6 6 6 6 6 6 6 5 5 5 5 4 4 4 4 3 3 3 3 3 3 3 3 3 2
11 10 10 10 9 9 9 9 8 8 8 7 7 7 7 6 6 6 6 6 6 6 6 5 5 5 4 4 4 3 3 3 3 2 2 2 2 2 2 2 2 2 2
10 10 10 9 9 9 9 8 8 8 7 7 6 6 6 6 6 5 5 5 5 5 5 4 4 4 3 3 3 2 2 2 2 2 2 1 1 1 1 1 1 1 1
9 9 9 9 9 9 9 8 8 7 7 6 6 6 5 5 5 5 5 5 5 4 4 4 3 3 3 2 2 2 1 1 1 1 1 1 1 0 0 0 0 0 0
9 9 9 9 9 9 8 8 8 7 7 6 6 5 5 5 5 5 4 4 4 4 3 3 3 2 2 2 1 1 1 1 1 0 0 0 -0 -0 -0 -0 -0 -0 0
8 8 8 8 8 8 8 7 7 7 6 6 5 5 5 5 5 4 4 4 3 3 2 2 2 2 1 1 1 1 0 0 0 -0 -0 -0 -1 -1 -1 -0 -0 -0 -0
8 8 8 8 7 7 7 7 7 6 6 6 5 5 5 5 4 4 3 3 2 2 2 1 1 1 1 1 0 0 -0 -0 -0 -0 -0 -0 -1 -1 -1 -1 -1 -1 -0
8 8 7 7 7 7 7 7 6 6 6 5 5 5 4 4 4 3 3 2 2 2 1 1 1 1 1 0 -0 -0 -1 -1 -1 -1 -1 -1 -1 -1 -1 -1 -1 -0 -0
8 8 7 7 7 6 6 6 6 5 5 5 4 4 4 3 3 2 2 2 2 1 1 1 1 1 0 -0 -0 -1 -1 -1 -1 -1 -1 -0 -0 -1 -1 -1 -1 -0 -0
7 7 7 7 6 6 6 5 5 5 5 4 4 3 3 3 3 2 2 2 1 1 1 1 1 0 -0 -0 -0 -1 -1 -1 -1 -1 -0 -0 -0 -1 -1 -1 -1 -0 -0
7 7 6 6 6 6 5 5 5 4 4 4 3 3 3 2 2 2 2 1 1 1 1 1 0 0 -0 -0 -1 -1 -1 -1 -1 -1 -1 -1 -1 -1 -1 -1 -1 -0 -0
Wind_Speed
9 8 8 8 8 7 6 6 6 6 7 8 7 6 6 6 5 4 4 4 4 4 4 3 3 3 3 4 3 3 3 3 4 4 3 1 2 2 4 8 9 10 14
9 9 8 8 8 8 7 7 7 7 7 7 6 6 5 6 5 5 5 4 4 4 4 4 4 4 4 4 4 5 4 3 3 5 4 3 3 4 5 5 7 11 12
10 10 9 9 8 8 7 7 7 6 6 6 6 5 5 4 4 4 4 4 3 3 3 3 3 3 3 3 4 4 4 5 3 4 5 4 4 4 4 5 7 6 11
11 10 10 10 9 8 7 7 7 6 6 5 5 4 3 2 2 3 3 3 2 2 1 1 1 1 2 3 3 3 4 5 5 5 5 5 5 4 3 3 4 4 5
11 10 10 9 8 8 7 7 6 6 6 4 4 3 2 1 1 1 1 1 1 0 1 1 2 4 5 4 3 3 4 4 4 5 5 5 4 4 4 4 5 5 5
10 9 9 9 9 8 7 7 6 6 5 5 4 3 3 3 5 7 4 2 2 2 2 2 3 5 5 5 4 4 3 4 4 4 5 5 5 5 4 5 5 5 5
9 9 9 8 9 8 8 7 7 6 6 5 5 6 7 7 9 9 8 4 4 5 5 5 5 8 9 6 4 3 3 2 1 3 5 5 5 5 5 6 6 6 6
10 9 9 9 9 8 8 7 7 6 7 7 7 8 8 9 11 10 8 5 6 6 7 7 7 8 9 8 6 5 4 4 3 2 3 4 5 4 4 5 7 7 8
9 9 9 10 9 9 8 8 8 8 9 9 9 9 10 10 12 12 9 5 6 6 7 8 7 7 9 10 7 6 6 5 6 6 7 9 11 12 9 5 6 6 8
10 10 9 9 10 10 9 9 9 9 10 10 11 11 11 10 13 14 12 6 6 5 6 7 10 8 8 9 6 6 6 7 8 9 8 9 8 9 10 6 5 6 7
11 11 11 11 11 11 10 9 9 10 11 11 11 10 10 10 12 14 13 7 6 5 4 4 5 6 6 6 5 4 5 7 8 8 7 6 5 4 3 3 3 4 6
13 13 12 11 11 12 11 10 10 10 10 9 9 9 8 8 9 10 11 10 8 6 5 5 3 5 6 7 5 6 9 9 6 6 6 5 6 6 6 6 7 7 7
14 13 13 13 12 10 10 10 8 7 7 7 7 8 8 7 7 8 7 7 8 5 5 5 5 6 6 6 4 7 7 5 6 6 6 6 6 6 6 6 7 8 9
14 13 12 12 12 11 9 9 9 7 7 7 7 7 7 7 7 6 6 6 7 6 6 6 7 7 5 6 6 3 3 3 5 6 6 7 7 7 7 7 8 8 8
13 12 12 12 13 12 12 11 11 10 9 8 8 7 6 6 5 7 6 6 6 7 8 5 2 3 3 4 5 5 5 6 6 7 7 8 8 7 7 7 7 8 8
11 10 10 9 10 10 11 12 16 13 16 17 14 11 8 6 3 6 8 8 9 10 7 5 5 6 7 7 7 7 6 7 7 7 7 7 7 8 8 7 7 8 9
9 8 8 8 8 8 9 9 9 8 11 12 12 11 8 4 2 5 8 10 11 8 4 5 6 6 6 7 7 7 8 7 6 7 7 7 8 8 8 8 8 8 9
9 9 7 6 6 6 6 7 7 7 6 5 4 5 3 1 3 6 9 9 4 2 4 6 6 6 6 6 7 7 7 7 7 7 8 8 8 8 9 9 9 10 10
7 6 6 6 6 5 5 6 6 6 6 5 4 2 2 4 5 7 7 5 6 7 7 7 7 7 7 6 6 6 7 7 7 7 7 8 8 9 9 10 10 12 11
7 9 6 5 5 5 5 6 6 6 6 5 5 4 2 2 1 2 2 4 6 7 7 7 7 6 6 6 6 6 7 7 7 8 8 9 9 10 10 11 11 11 10
6 6 4 5 6 6 6 6 6 5 5 5 5 5 4 4 5 6 6 6 7 7 7 6 6 6 6 6 6 7 9 8 8 9 10 10 10 10 10 10 11 11 11
5 5 6 7 7 6 6 5 5 5 5 5 5 4 3 4 6 7 7 7 7 6 6 6 7 6 6 6 7 7 8 9 9 10 11 11 11 11 11 11 11 11 11
6 7 7 7 6 4 4 5 5 5 6 6 5 5 5 6 6 6 6 6 6 6 7 7 6 6 8 9 9 7 7 9 10 11 11 11 11 11 11 11 12 13 12
6 7 7 6 5 5 5 5 5 5 6 6 6 6 6 5 5 6 6 5 6 6 7 7 7 9 10 10 10 10 11 12 13 12 13 12 12 12 12 11 12 12 12
6 6 6 6 5 5 5 5 5 5 5 5 5 5 6 5 5 5 5 5 6 6 8 9 8 9 11 12 13 12 13 15 15 14 14 12 13 14 13 12 12 12 12
6 6 6 5 5 4 4 4 4 4 4 4 5 5 5 5 5 5 6 6 7 6 7 8 11 12 12 12 13 13 15 17 18 18 15 12 12 12 12 11 14 12 12
Wind_Direction
172 175 171 171 168 165 175 170 165 153 152 159 164 169 177 179 183 195 227 190 201 218 236 229 227 268 307 312 293 272 265 264 274 288 295 270 175 206 172 221 241 234 225
172 171 169 166 166 169 172 163 159 158 161 162 169 176 190 189 184 193 220 213 208 216 230 234 234 240 237 277 299 299 292 285 272 284 294 298 261 225 216 228 250 255 251
173 170 167 167 169 173 167 160 159 162 168 169 172 186 198 194 185 198 216 224 224 228 231 235 241 256 258 264 272 290 300 293 271 267 275 275 272 262 249 246 253 260 271
169 168 165 168 168 167 162 160 162 165 170 173 172 171 177 182 190 207 214 224 229 240 247 259 272 277 287 289 284 291 297 302 303 295 285 286 283 283 275 268 276 275 276
164 165 163 164 161 162 161 159 161 165 170 152 140 133 127 106 30 15 227 222 188 287 341 354 44 54 47 23 343 343 330 317 312 310 304 306 310 330 329 319 302 303 290
152 155 158 161 164 164 158 152 148 145 137 129 125 114 89 66 41 47 44 43 60 62 43 46 66 52 44 32 12 357 345 320 321 320 316 318 328 337 335 325 318 313 300
145 148 149 154 155 152 151 143 142 139 126 110 108 98 84 56 50 46 41 52 57 57 48 41 41 47 34 16 356 354 17 11 304 298 303 313 320 335 336 324 319 309 291
148 150 146 144 142 138 134 132 130 119 113 106 98 94 84 58 47 44 37 61 70 66 61 63 66 52 29 14 359 6 1 9 345 318 319 308 307 306 295 293 292 291 281
139 137 139 139 134 130 127 120 112 107 101 95 93 88 81 59 45 40 32 71 76 69 68 61 65 63 35 18 11 4 356 351 342 329 307 292 288 284 276 283 287 292 296
126 123 121 122 121 119 115 111 107 105 101 96 87 83 81 69 49 43 37 48 58 61 82 76 62 56 36 23 14 360 351 345 336 325 311 298 284 279 271 245 265 289 299
118 115 112 111 111 111 107 106 105 101 98 96 94 88 83 78 60 51 46 43 32 35 52 70 62 36 20 7 353 334 324 319 311 303 300 302 304 304 303 287 263 270 288
106 104 104 103 103 103 102 100 101 105 108 109 109 101 89 78 65 58 50 42 29 31 33 39 30 349 334 324 317 306 313 314 303 308 319 328 334 339 340 331 318 304 291
99 97 94 91 90 94 98 101 103 106 107 108 106 100 91 78 60 46 42 35 22 21 15 360 323 297 305 306 285 297 314 321 332 337 339 339 338 337 334 328 327 325 319
97 94 92 90 85 76 74 75 71 64 73 81 80 83 85 69 44 26 24 26 19 18 359 323 300 286 287 310 328 327 317 342 349 345 344 340 340 341 341 341 334 330 322
97 95 93 90 87 79 71 64 72 60 67 71 70 71 72 65 37 28 27 15 3 358 336 316 330 12 3 6 3 4 2 4 5 358 349 343 341 339 336 335 329 325 321
101 100 100 101 101 101 96 81 61 71 72 74 77 84 81 84 61 24 11 350 339 341 338 343 13 18 12 7 2 359 3 7 2 349 341 339 336 333 329 328 327 326 322
89 93 101 105 109 112 116 115 106 78 67 73 82 88 96 101 30 350 340 328 314 320 336 8 21 17 10 6 3 1 358 356 349 343 342 338 335 332 330 328 326 323 320
84 84 92 100 106 113 120 123 125 127 118 105 100 110 121 185 289 308 325 330 344 23 19 19 17 13 10 9 5 359 349 344 345 344 338 337 337 332 328 324 322 321 320
83 81 80 89 95 97 102 107 111 113 111 118 123 123 260 261 258 283 317 346 9 22 21 18 15 8 7 3 356 348 341 337 341 339 338 341 337 331 325 321 318 317 315
80 74 71 83 95 96 89 90 91 94 93 89 88 66 13 332 14 31 24 12 16 21 16 12 8 1 3 358 350 347 340 339 343 344 342 338 333 326 321 318 317 316 312
103 94 78 75 75 74 76 76 77 78 80 81 84 72 5 357 28 35 33 29 23 14 13 7 357 356 3 359 354 345 342 345 350 347 341 333 327 321 317 315 314 312 309
111 103 87 82 78 72 74 79 80 78 76 78 91 88 29 16 33 35 29 26 21 10 12 6 355 357 3 356 348 344 347 354 354 343 331 323 319 316 314 311 310 309 308
96 97 93 87 86 86 82 78 72 67 63 59 53 51 47 35 31 33 24 22 15 4 4 359 352 355 2 354 350 3 11 2 343 329 322 318 316 313 309 305 305 307 308
92 95 98 100 96 86 79 75 67 61 58 51 44 41 40 37 30 30 21 18 5 358 358 351 351 354 357 2 10 18 14 353 338 327 320 311 305 303 303 303 304 305 307
88 87 87 84 82 80 76 70 63 57 51 47 43 35 29 25 22 21 17 9 357 357 353 353 356 353 1 22 19 8 356 347 339 330 317 306 301 301 302 306 309 309 310
92 89 88 88 85 81 76 69 62 57 52 49 44 34 21 14 14 14 10 3 355 355 354 353 353 4 19 19 10 3 353 345 338 331 320 304 300 304 312 314 313 314 313
Height
1496 1500 1504 1508 1511 1515 1518 1522 1525 1528 1531 1533 1536 1538 1540 1542 1544 1545 1547 1549 1549 1550 1551 1552 1553 1554 1554 1555 1555 1556 1556 1557 1556 1556 1556 1556 1556 1556 1555 1555 1554 1554 1553
1496 1499 1503 1506 1510 1514 1517 1520 1524 1527 1529 1532 1535 1537 1539 1541 1543 1544 1545 1547 1548 1549 1550 1550 1551 1551 1551 1552 1552 1553 1553 1553 1553 1552 1552 1553 1552 1552 1551 1551 1550 1549 1549
1495 1499 1502 1505 1509 1512 1515 1519 1522 1525 1528 1531 1533 1535 1538 1540 1541 1543 1544 1545 1546 1547 1548 1548 1548 1549 1549 1549 1549 1549 1549 1550 1549 1549 1548 1548 1548 1548 1547 1546 1545 1545 1544
1495 1498 1501 1504 1507 1511 1514 1517 1521 1524 1526 1529 1532 1534 1536 1538 1539 1541 1542 1543 1544 1545 1545 1545 1546 1546 1546 1546 1546 1545 1545 1545 1545 1545 1544 1543 1543 1543 1542 1541 1540 1539 1539
1494 1497 1500 1503 1507 1510 1513 1516 1519 1522 1525 1528 1530 1532 1534 1536 1537 1538 1539 1540 1541 1541 1542 1542 1542 1542 1542 1542 1542 1542 1541 1541 1541 1540 1539 1539 1538 1537 1537 1536 1535 1534 1533
1493 1496 1499 1503 1506 1509 1512 1515 1518 1521 1524 1526 1528 1530 1532 1533 1534 1535 1537 1537 1538 1538 1539 1539 1539 1539 1538 1538 1538 1538 1537 1537 1536 1535 1535 1534 1533 1532 1531 1530 1529 1528 1526
1492 1495 1498 1502 1505 1507 1510 1513 1516 1519 1522 1524 1526 1528 1530 1531 1532 1533 1534 1535 1535 1535 1536 1536 1536 1535 1535 1534 1534 1533 1533 1532 1532 1531 1530 1529 1528 1527 1526 1524 1523 1521 1520
1491 1494 1497 1500 1503 1506 1509 1512 1515 1518 1520 1522 1524 1526 1528 1529 1530 1531 1532 1532 1533 1533 1533 1533 1532 1532 1531 1530 1529 1529 1528 1527 1527 1526 1525 1524 1523 1522 1521 1519 1517 1515 1513
1490 1494 1497 1499 1502 1506 1509 1511 1514 1516 1519 1521 1523 1524 1526 1527 1528 1529 1530 1530 1530 1531 1530 1530 1530 1529 1528 1527 1526 1525 1524 1523 1523 1522 1520 1519 1518 1517 1516 1514 1512 1510 1507
1489 1492 1496 1499 1502 1505 1508 1510 1513 1516 1518 1520 1522 1523 1525 1526 1527 1528 1528 1528 1528 1529 1528 1528 1527 1526 1526 1524 1523 1522 1521 1520 1518 1517 1516 1515 1514 1512 1511 1509 1508 1506 1503
1489 1493 1496 1499 1502 1505 1508 1511 1513 1515 1518 1520 1521 1523 1524 1525 1526 1526 1527 1527 1527 1527 1527 1526 1525 1524 1523 1522 1521 1520 1518 1517 1515 1514 1512 1511 1510 1509 1507 1505 1504 1502 1500
1490 1493 1496 1500 1503 1506 1508 1511 1513 1516 1518 1520 1522 1523 1523 1524 1525 1526 1526 1526 1526 1526 1525 1525 1524 1523 1522 1520 1519 1518 1517 1515 1514 1512 1510 1509 1507 1505 1503 1501 1499 1497 1495
1491 1494 1498 1501 1504 1507 1510 1512 1515 1517 1519 1521 1523 1524 1525 1525 1525 1526 1526 1526 1525 1525 1524 1524 1523 1522 1521 1519 1518 1517 1515 1514 1512 1510 1508 1506 1504 1502 1499 1497 1494 1492 1490
1493 1497 1500 1503 1506 1509 1512 1514 1516 1518 1520 1522 1524 1525 1525 1526 1526 1526 1525 1525 1525 1524 1523 1522 1522 1521 1520 1518 1517 1516 1514 1513 1510 1508 1506 1504 1501 1498 1496 1493 1490 1487 1484
1497 1500 1503 1506 1508 1511 1513 1515 1518 1520 1521 1523 1524 1526 1526 1526 1526 1526 1526 1524 1524 1523 1522 1522 1521 1520 1519 1518 1516 1515 1513 1511 1508 1506 1503 1500 1497 1495 1492 1490 1487 1483 1481
1501 1504 1507 1509 1511 1514 1515 1517 1520 1521 1523 1525 1526 1526 1526 1527 1527 1526 1526 1525 1524 1523 1522 1522 1521 1519 1518 1517 1515 1513 1511 1509 1506 1503 1501 1498 1495 1492 1489 1486 1484 1481 1477
1505 1508 1511 1513 1515 1517 1519 1520 1521 1524 1525 1526 1527 1527 1528 1528 1527 1526 1526 1525 1524 1523 1522 1522 1520 1519 1517 1516 1514 1512 1510 1507 1504 1502 1499 1496 1493 1489 1486 1483 1480 1477 1474
1508 1511 1514 1516 1518 1520 1521 1522 1524 1525 1526 1527 1528 1528 1528 1528 1527 1527 1526 1525 1525 1524 1523 1522 1520 1518 1517 1515 1513 1510 1508 1505 1503 1500 1497 1494 1490 1487 1483 1480 1477 1474 1470
1512 1514 1516 1519 1521 1522 1524 1525 1526 1527 1527 1528 1529 1529 1529 1528 1528 1527 1526 1526 1525 1524 1523 1521 1520 1518 1516 1513 1511 1509 1506 1504 1501 1498 1495 1491 1488 1484 1480 1477 1474 1470 1467
1515 1517 1519 1521 1522 1524 1525 1526 1527 1528 1529 1530 1530 1530 1529 1529 1528 1528 1527 1526 1526 1524 1522 1521 1519 1517 1515 1512 1510 1507 1505 1502 1499 1496 1492 1488 1485 1481 1477 1474 1470 1466 1463
1517 1519 1521 1522 1524 1525 1526 1527 1528 1529 1530 1530 1530 1530 1530 1529 1529 1529 1528 1527 1525 1524 1522 1520 1518 1516 1514 1511 1508 1506 1503 1500 1496 1493 1489 1485 1481 1477 1474 1470 1467 1463 1459
1520 1521 1523 1524 1525 1526 1527 1528 1529 1530 1530 1531 1531 1531 1530 1530 1530 1529 1528 1526 1525 1523 1521 1519 1517 1515 1513 1510 1507 1504 1501 1497 1493 1489 1486 1482 1478 1474 1470 1467 1463 1460 1456
1522 1523 1524 1525 1526 1528 1529 1530 1530 1531 1531 1531 1532 1531 1531 1530 1530 1529 1527 1526 1524 1523 1521 1519 1517 1514 1511 1508 1505 1502 1498 1494 1491 1487 1482 1478 1474 1470 1467 1463 1460 1456 1452
1524 1525 1526 1527 1528 1530 1530 1531 1531 1532 1532 1532 1532 1532 1531 1531 1530 1528 1527 1525 1523 1522 1520 1518 1516 1513 1510 1507 1504 1500 1496 1492 1488 1483 1479 1475 1470 1467 1463 1460 1457 1453 1449
1525 1526 1527 1529 1530 1530 1531 1531 1532 1532 1532 1532 1532 1532 1531 1530 1529 1528 1526 1525 1523 1521 1519 1517 1514 1512 1509 1505 1501 1497 1493 1489 1484 1480 1475 1471 1467 1464 1461 1458 1454 1450 1446
1527 1528 1529 1530 1530 1531 1532 1532 1532 1533 1533 1533 1532 1532 1531 1530 1529 1528 1526 1524 1522 1520 1518 1515 1513 1510 1506 1502 1498 1494 1490 1485 1481 1476 1472 1468 1464 1461 1458 1454 1451 1447 1443